Вернуться в каталог

SL-12 DEB

LostHEO
NORAD 47121·DEBRIS·🇷🇺 Russia

Запущен Dec 25, 2008 с Baikonur Cosmodrome

Loading…

Ближайшие Пролёты (ближайшие 24 часа)

TLE

УстаревшееSource: Space-Track

Эпоха: Feb 21, 2023, 15:30 UTC

1 47121U 08067Z   23052.64594244  .00000970  00000-0  33895-2 0  9992
2 47121  65.1634 197.4885 5625311 312.1257  12.0321  4.35018955100198

Отслеживайте SL-12 DEB в реальном времени с AllMySat

Download on the App Store